FW6627 Weather Reports


Display with metric or nautical units.
time (UTC)temp
F
wind
direction
speed
MPH
gust
MPH
rain 1hr
in
rain 24hr
in
rain mn
in
humidity
%
barometer
mb
20260504234558 72 0 0.0 2.0 0.00 0.00 0.00 42 1010.2
20260504233041 73 0 0.0 1.0 0.00 0.00 0.00 41 1010.0
20260504231548 74 0 0.0 4.0 0.00 0.00 0.00 40 1009.9
20260504230042 74 0 0.0 2.0 0.00 0.00 0.00 38 1009.9
20260504224538 75 305 1.0 9.0 0.00 0.00 0.00 37 1009.9
20260504223040 76 216 0.0 3.0 0.00 0.00 0.00 36 1009.9
20260504221535 77 328 0.0 6.0 0.00 0.00 0.00 35 1009.9
20260504220042 78 96 1.0 7.0 0.00 0.00 0.00 34 1010.0
20260504214542 78 0 0.0 6.0 0.00 0.00 0.00 33 1010.1
20260504213046 78 308 1.0 5.0 0.00 0.00 0.00 32 1010.2
20260504211540 79 187 0.0 5.0 0.00 0.00 0.00 32 1010.2
20260504210042 79 332 1.0 7.0 0.00 0.00 0.00 31 1010.1
20260504204613 80 0 0.0 9.0 0.00 0.00 0.00 31 1010.1
20260504203036 80 0 0.0 4.0 0.00 0.00 0.00 30 1010.3
20260504200042 80 0 0.0 6.0 0.00 0.00 0.00 30 1010.4
20260504194548 80 0 0.0 2.0 0.00 0.00 0.00 30 1010.8
20260504193041 79 309 0.0 3.0 0.00 0.00 0.00 30 1011.0
20260504191545 80 0 0.0 3.0 0.00 0.00 0.00 30 1011.3
20260504190040 79 0 0.0 4.0 0.00 0.00 0.00 30 1011.5
20260504184558 79 0 0.0 3.0 0.00 0.00 0.00 30 1011.7
20260504183046 78 93 0.0 6.0 0.00 0.00 0.00 32 1011.9
20260504181541 78 236 0.0 4.0 0.00 0.00 0.00 31 1012.0
20260504180038 77 0 0.0 4.0 0.00 0.00 0.00 33 1012.3
20260504174536 77 0 0.0 8.0 0.00 0.00 0.00 33 1012.5
20260504171545 77 288 0.0 3.0 0.00 0.00 0.00 33 1013.1
20260504081541 51 0 0.0 1.0 0.00 0.00 0.00 68 1015.7
20260504044542 48 0 0.0 0.0 0.00 0.00 0.00 73 1015.9
20260504043039 47 0 0.0 0.0 0.00 0.00 0.00 77 1015.8
20260504041539 47 0 0.0 0.0 0.00 0.00 0.00 77 1015.9
20260504040041 47 0 0.0 0.0 0.00 0.00 0.00 75 1016.0
20260504034551 47 0 0.0 0.0 0.00 0.00 0.00 73 1016.0
20260504033121 47 0 0.0 0.0 0.00 0.00 0.00 73 1015.7
20260504031540 48 0 0.0 0.0 0.00 0.00 0.00 71 1015.8
20260504030042 48 0 0.0 0.0 0.00 0.00 0.00 70 1015.7
20260504024534 48 0 0.0 0.0 0.00 0.00 0.00 68 1015.7
20260504023043 49 0 0.0 0.0 0.00 0.00 0.00 70 1015.7
20260504021541 49 0 0.0 0.0 0.00 0.00 0.00 69 1015.6
20260504020039 50 0 0.0 0.0 0.00 0.00 0.00 65 1015.6
20260504014550 50 0 0.0 0.0 0.00 0.00 0.00 63 1015.3
20260504013035 51 0 0.0 0.0 0.00 0.00 0.00 64 1015.3
20260504011544 52 0 0.0 0.0 0.00 0.00 0.00 62 1015.1
20260504010040 53 0 0.0 0.0 0.00 0.00 0.00 56 1015.0
20260504004542 54 0 0.0 0.0 0.00 0.00 0.00 56 1015.0
20260504003048 55 0 0.0 0.0 0.00 0.00 0.00 52 1015.0
20260504001536 56 0 0.0 0.0 0.00 0.00 0.00 49 1014.7
20260504000037 57 0 0.0 0.0 0.00 0.00 0.00 46 1014.8